N4JEX-1 Weather Reports


time (UTC)temp
C
wind
direction
speed
KPH
gust
KPH
rain 1hr
cm
rain 24hr
cm
rain mn
cm
humidity
%
barometer
mb
20260509115228 12 331 0.0 1.6 0.00 0.00 0.00 91 1012.8
20260509114224 12 330 0.0 0.0 0.00 0.00 0.00 91 1013.2
20260509113219 12 330 0.0 3.2 0.00 0.00 0.00 91 1013.2
20260509112216 11 73 0.0 3.2 0.00 0.00 0.00 91 1013.3
20260509111232 11 148 0.0 0.0 0.00 0.00 0.00 90 1013.0
20260509110220 11 184 0.0 0.0 0.00 0.00 0.00 90 1012.8
20260509105239 11 184 0.0 0.0 0.00 0.00 0.00 90 1013.0
20260509104226 11 184 0.0 0.0 0.00 0.00 0.00 90 1013.1
20260509103223 11 184 0.0 0.0 0.00 0.00 0.00 89 1012.8
20260509102219 11 184 0.0 0.0 0.00 0.00 0.00 89 1012.7
20260509101218 11 184 0.0 0.0 0.00 0.00 0.00 88 1012.5
20260509095213 11 184 0.0 0.0 0.00 0.00 0.00 88 1012.2
20260509094229 11 183 0.0 0.0 0.00 0.00 0.00 87 1012.3
20260509093226 11 183 0.0 0.0 0.00 0.00 0.00 87 1012.2
20260509092223 11 183 0.0 0.0 0.00 0.00 0.00 87 1012.5
20260509091239 11 183 0.0 0.0 0.00 0.00 0.00 87 1012.4
20260509090226 12 183 0.0 0.0 0.00 0.00 0.00 86 1012.4
20260509085245 12 183 0.0 0.0 0.00 0.00 0.00 86 1012.4
20260509084240 12 183 0.0 0.0 0.00 0.00 0.00 86 1012.3
20260509083237 12 184 0.0 0.0 0.00 0.00 0.00 86 1012.3
20260509082224 12 183 0.0 0.0 0.00 0.00 0.00 85 1012.2
20260509081216 12 183 0.0 0.0 0.00 0.00 0.00 85 1012.3
20260509080213 12 183 0.0 0.0 0.00 0.00 0.00 84 1012.5
20260509075223 12 184 0.0 0.0 0.00 0.00 0.00 84 1012.7
20260509074219 12 184 0.0 0.0 0.00 0.00 0.00 84 1012.8
20260509073231 12 183 0.0 0.0 0.00 0.00 0.00 84 1012.8
20260509072219 12 183 0.0 0.0 0.00 0.00 0.00 84 1013.1
20260509071235 12 184 0.0 0.0 0.00 0.00 0.00 84 1013.1
20260509070231 12 183 0.0 0.0 0.00 0.00 0.00 84 1013.1
20260509065221 13 184 0.0 0.0 0.00 0.00 0.00 84 1013.2
20260509064238 13 183 0.0 1.6 0.00 0.00 0.00 84 1013.5
20260509063243 13 184 0.0 0.0 0.00 0.00 0.00 83 1013.6
20260509062238 13 184 0.0 1.6 0.00 0.00 0.00 83 1013.5
20260509061225 13 184 0.0 0.0 0.00 0.00 0.00 82 1013.7
20260509060242 13 183 0.0 0.0 0.00 0.00 0.00 82 1013.8
20260509055239 13 183 0.0 0.0 0.00 0.00 0.00 81 1014.0
20260509054231 13 183 0.0 0.0 0.00 0.00 0.00 81 1014.2
20260509053219 14 183 0.0 0.0 0.00 0.00 0.00 80 1014.3
20260509052245 14 183 0.0 0.0 0.00 0.00 0.00 79 1014.5
20260509051240 14 184 0.0 0.0 0.00 0.00 0.00 79 1014.5
20260509050227 15 184 0.0 0.0 0.00 0.00 0.00 78 1014.6
20260509045217 15 184 0.0 0.0 0.00 0.00 0.00 76 1014.6
20260509044214 15 184 0.0 0.0 0.00 0.00 0.00 76 1014.8
20260509043251 15 183 0.0 1.6 0.00 0.00 0.00 76 1015.0
20260509042226 15 178 0.0 1.6 0.00 0.00 0.00 75 1014.9
20260509041223 15 178 0.0 1.6 0.00 0.00 0.00 74 1014.9
20260509040219 15 178 0.0 0.0 0.00 0.00 0.00 75 1014.7
20260509035224 15 178 0.0 1.6 0.00 0.00 0.00 74 1014.8
20260509034240 15 186 0.0 1.6 0.00 0.00 0.00 73 1014.7
20260509033237 15 209 0.0 1.6 0.00 0.00 0.00 73 1014.7
20260509032254 16 270 0.0 1.6 0.00 0.00 0.00 73 1014.7
20260509031220 16 284 0.0 0.0 0.00 0.00 0.00 73 1014.8
20260509030216 16 160 0.0 0.0 0.00 0.00 0.00 73 1014.7
20260509024221 16 160 0.0 0.0 0.00 0.00 0.00 72 1015.0
20260509023218 16 160 0.0 0.0 0.00 0.00 0.00 72 1015.2
20260509022234 16 160 0.0 0.0 0.00 0.00 0.00 72 1015.1
20260509021251 16 160 0.0 0.0 0.00 0.00 0.00 71 1015.1
20260509020226 16 175 0.0 0.0 0.00 0.00 0.00 72 1014.9
20260509015235 16 175 0.0 0.0 0.00 0.00 0.00 72 1015.0
20260509014231 16 175 0.0 0.0 0.00 0.00 0.00 71 1015.0
20260509013227 16 175 0.0 0.0 0.00 0.00 0.00 70 1014.9
20260509012215 16 175 0.0 0.0 0.00 0.00 0.00 69 1014.7
20260509011231 17 175 0.0 0.0 0.00 0.00 0.00 69 1014.6
20260509010228 17 175 0.0 0.0 0.00 0.00 0.00 70 1014.6
20260509005218 17 175 0.0 0.0 0.00 0.00 0.00 68 1014.5
20260509004215 17 175 0.0 0.0 0.00 0.00 0.00 66 1014.4
20260509003251 17 175 0.0 0.0 0.00 0.00 0.00 64 1014.4
20260509002226 18 175 0.0 0.0 0.00 0.00 0.00 62 1014.4
20260509001223 18 175 0.0 0.0 0.00 0.00 0.00 62 1014.3
20260509000241 18 175 0.0 0.0 0.00 0.00 0.00 60 1014.2
20260508235229 18 175 0.0 0.0 0.00 0.00 0.00 60 1014.1
20260508234216 19 175 0.0 0.0 0.00 0.00 0.00 59 1014.0
20260508233213 19 175 0.0 0.0 0.00 0.00 0.00 57 1014.2
20260508232229 19 176 0.0 0.0 0.00 0.00 0.00 56 1013.8
20260508231241 19 176 0.0 0.0 0.00 0.00 0.00 57 1014.1
20260508230214 19 176 0.0 0.0 0.00 0.03 0.00 53 1014.1
20260508225222 20 176 0.0 1.6 0.00 0.03 0.00 54 1014.0
20260508224218 20 176 0.0 1.6 0.00 0.03 0.00 48 1014.1
20260508223235 20 298 0.0 1.6 0.00 0.03 0.00 50 1014.2
20260508222222 20 345 0.0 3.2 0.00 0.03 0.00 46 1014.1
20260508221218 20 271 0.0 3.2 0.00 0.03 0.00 46 1014.2
20260508220216 20 349 3.2 3.2 0.00 0.08 0.00 44 1013.9
20260508215254 20 62 0.0 3.2 0.00 0.08 0.00 43 1013.8
20260508214221 20 355 0.0 0.0 0.00 0.08 0.00 43 1014.0
20260508213217 20 331 0.0 3.2 0.00 0.08 0.00 44 1014.0
20260508212213 20 38 0.0 4.8 0.00 0.08 0.00 45 1014.0
20260508211230 21 343 1.6 4.8 0.00 0.08 0.00 44 1014.3
20260508210218 21 222 0.0 4.8 0.00 0.08 0.00 40 1014.4
20260508205237 21 277 3.2 8.0 0.00 0.08 0.00 40 1014.4
20260508204233 21 320 1.6 4.8 0.00 0.08 0.00 43 1014.2
20260508203229 21 113 1.6 8.0 0.00 0.08 0.00 41 1014.3
20260508202214 21 346 3.2 6.4 0.00 0.08 0.00 40 1014.6
20260508201230 22 355 1.6 4.8 0.00 0.08 0.00 41 1014.7
20260508200226 21 147 0.0 6.4 0.00 0.08 0.00 41 1014.7
20260508195216 21 42 3.2 6.4 0.00 0.08 0.00 40 1015.2
20260508194252 21 324 1.6 4.8 0.00 0.08 0.00 40 1015.2
20260508193228 21 302 0.0 4.8 0.00 0.08 0.00 38 1015.4
20260508192244 21 96 1.6 4.8 0.00 0.08 0.00 37 1015.6
20260508191218 21 95 1.6 4.8 0.00 0.08 0.00 34 1015.5
20260508190215 20 351 4.8 6.4 0.00 0.08 0.00 36 1015.6
20260508185240 20 108 1.6 9.7 0.00 0.08 0.00 38 1016.0
20260508184256 21 329 3.2 6.4 0.00 0.08 0.00 37 1016.2
20260508183223 20 273 1.6 6.4 0.00 0.08 0.00 34 1016.0
20260508182219 20 336 1.6 4.8 0.00 0.08 0.00 37 1016.1
20260508181215 20 88 1.6 4.8 0.00 0.08 0.00 36 1016.3
20260508180232 21 148 1.6 9.7 0.00 0.08 0.00 37 1016.4
20260508175222 20 73 1.6 4.8 0.00 0.08 0.00 40 1016.5
20260508174238 20 309 0.0 4.8 0.00 0.08 0.00 38 1016.6
20260508173213 20 360 1.6 8.0 0.00 0.08 0.00 40 1016.8
20260508172229 20 343 1.6 6.4 0.00 0.08 0.00 40 1016.8
20260508171216 20 325 3.2 6.4 0.00 0.08 0.00 38 1017.0
20260508170232 20 100 1.6 4.8 0.00 0.08 0.00 39 1017.3
20260508165222 19 355 1.6 8.0 0.00 0.08 0.00 44 1017.4
20260508164238 19 177 0.0 4.8 0.00 0.08 0.00 45 1017.4
20260508163213 19 53 1.6 8.0 0.00 0.08 0.00 40 1017.6
20260508162229 19 78 1.6 3.2 0.00 0.08 0.00 47 1017.7
20260508161225 18 98 1.6 12.9 0.00 0.08 0.00 45 1017.9
20260508160222 19 80 0.0 11.3 0.00 0.10 0.00 44 1018.0
20260508155232 18 94 4.8 11.3 0.00 0.10 0.00 44 1018.2
20260508154228 18 76 1.6 9.7 0.00 0.10 0.00 47 1018.2
20260508153216 18 97 3.2 8.0 0.00 0.10 0.00 47 1018.2
20260508152232 17 138 3.2 8.0 0.00 0.10 0.00 48 1018.2
20260508151228 17 9 3.2 8.0 0.00 0.10 0.00 47 1018.2
20260508150224 17 103 1.6 8.0 0.00 0.10 0.00 58 1018.4
20260508145213 16 107 1.6 9.7 0.00 0.15 0.00 59 1018.5
20260508144229 16 86 3.2 8.0 0.00 0.15 0.00 55 1018.5
20260508143217 16 90 1.6 8.0 0.00 0.15 0.00 61 1018.4
20260508142213 15 125 3.2 4.8 0.00 0.15 0.00 60 1018.5
20260508141229 15 264 1.6 8.0 0.00 0.15 0.00 60 1018.4
20260508140226 15 27 1.6 6.4 0.00 0.15 0.00 65 1018.3
20260508135217 14 86 1.6 9.7 0.00 0.20 0.00 67 1018.4
20260508134213 13 119 3.2 8.0 0.00 0.20 0.00 72 1018.4
20260508133225 13 171 0.0 8.0 0.00 0.20 0.00 73 1018.4
20260508132242 13 105 3.2 8.0 0.00 0.20 0.00 75 1018.3
20260508131237 12 105 1.6 9.7 0.00 0.20 0.00 77 1018.2
20260508130225 12 111 1.6 8.0 0.00 0.20 0.00 80 1018.1
20260508125239 11 101 1.6 4.8 0.00 0.43 0.00 83 1017.9
20260508124235 11 89 1.6 9.7 0.00 0.43 0.00 84 1017.8
20260508123251 11 105 1.6 8.0 0.00 0.43 0.00 85 1017.8
20260508122227 10 119 3.2 9.7 0.00 0.43 0.00 87 1017.7
20260508121244 10 90 4.8 11.3 0.00 0.43 0.00 89 1017.6
20260508120239 10 78 1.6 4.8 0.00 0.43 0.00 90 1017.6